Simultaneous Nadir Overpasses (SNOs) Predictions

Prediction of SNOs between TERRA and METOP-C Satellite Orbit:

Table of predicted SNOs for the next 14.0 days since TLE Epoch: 8/10/2024
Index Date (TERRA) Time (TERRA) Lat,Lon (TERRA) SZA (TERRA ) Date (METOP-C) Time (METOP-C) Lat,Lon (METOP-C) SZA (METOP-C ) Distance(km) Time Diff (sec)
1 08/11/2024 01:36:07 69.17, 143.57 54.59 08/11/2024 01:34:54 69.28, 142.74 54.82 35.18 73
2 08/11/2024 02:23:26 -75.69, -36.49 119.53 08/11/2024 02:23:29 -75.71, -36.42 119.52 2.50 3
3 08/13/2024 16:09:02 60.40, -82.06 48.38 08/13/2024 16:07:50 60.62, -83.56 49.00 85.86 72
4 08/13/2024 16:53:51 -75.53, 105.43 118.90 08/13/2024 16:53:51 -75.54, 105.49 118.89 1.88 0
5 08/13/2024 17:39:32 81.91, -20.38 72.13 08/13/2024 17:40:44 81.15, -20.96 71.77 84.91 72
6 08/16/2024 07:24:16 -75.31,-112.81 118.30 08/16/2024 07:24:14 -75.31,-112.78 118.30 1.04 2
7 08/16/2024 08:11:29 80.76, 82.71 68.05 08/16/2024 08:12:42 80.40, 83.97 67.85 45.56 73
8 08/18/2024 21:54:39 -75.11, 29.06 117.65 08/18/2024 21:54:36 -75.11, 29.06 117.65 0.13 3
9 08/18/2024 22:42:33 79.14,-147.72 66.64 08/18/2024 22:43:46 78.97,-146.77 66.52 27.93 73
10 08/21/2024 12:25:01 -74.90, 170.90 117.00 08/21/2024 12:24:58 -74.89, 170.87 117.00 1.31 3
11 08/21/2024 13:12:56 78.92, -6.59 67.24 08/21/2024 13:14:09 78.76, -5.68 67.13 26.43 73
12 08/24/2024 02:55:21 -74.67, -47.28 116.34 08/24/2024 02:55:19 -74.65, -47.35 116.35 2.78 2



Historial Predications of SNOs between TERRA and METOP-C
